SCP
0 0 -0 0 0 0 0 0 0 0 -0 -0 0 0 0 0 0 0 0 0 0 0 0 0 0 0 0 0 0 0 0 0 0 0 0 0 0 0 0 0 0 0 0 0
0 0 0 0 0 0 0 0 0 0 0 0 0 0 -0 -0 -0 0 0 0 0 0 0 0 0 0 0 0 0 0 0 0 0 0 0 0 0 0 0 0 0 0 0 0
-0 0 0 0 0 -0 0 0 0 0 0 0 -0 -0 -0 -0 -0 0 0 0 0 1 0 0 0 0 0 0 0 0 0 0 0 0 0 0 0 0 0 0 0 0 0 0
0 0 0 0 0 0 0 0 0 0 0 0 0 -0 0 -0 0 0 0 0 0 0 0 0 0 0 0 0 0 0 0 0 0 0 0 0 0 0 0 0 0 0 0 0
0 0 0 0 0 0 0 1 0 0 0 0 0 0 0 0 0 0 0 0 0 0 0 0 0 0 0 0 0 0 0 0 0 0 0 0 0 0 0 0 0 0 0 0
0 0 0 0 0 0 0 0 0 0 0 0 0 0 0 0 0 0 0 0 0 0 0 0 0 0 0 0 0 0 0 0 0 0 0 0 0 0 0 0 0 0 0 0
0 0 0 0 0 0 0 0 0 -0 0 0 0 0 0 0 0 0 0 0 0 0 0 0 0 0 0 0 0 0 0 0 0 0 0 0 0 0 0 0 0 0 0 0
0 0 0 0 0 0 0 0 0 0 0 0 0 0 0 0 0 0 0 0 0 0 0 0 0 0 0 0 0 0 0 0 0 0 0 0 0 0 0 0 0 0 0 0
0 0 0 1 0 0 0 0 0 0 0 0 0 0 0 0 0 0 0 0 0 0 0 0 0 0 0 0 0 0 0 0 0 0 0 0 0 0 0 0 0 0 0 0
0 0 0 0 1 0 0 0 -0 0 0 0 0 0 0 0 0 0 0 0 0 0 0 0 0 0 0 0 0 0 0 0 0 0 0 0 0 0 0 0 0 0 0 0
0 0 0 0 0 0 0 -0 -0 0 0 0 0 0 0 1 1 1 0 0 0 0 0 0 0 0 0 0 0 0 0 0 0 0 0 0 0 0 0 0 0 0 0 0
0 0 0 0 0 -0 0 -0 0 0 0 0 1 1 1 1 1 1 0 0 0 0 0 0 0 0 0 0 0 0 0 0 0 0 0 0 0 0 0 0 0 0 0 0
0 0 0 0 -0 -0 -0 -0 0 0 1 1 1 1 1 1 0 0 0 0 0 0 0 0 0 0 0 0 0 0 0 0 0 0 0 0 0 0 0 0 0 0 0 0
-0 -0 0 -0 -0 -0 0 1 1 1 1 1 1 1 1 1 0 0 0 0 0 0 0 0 0 0 0 0 0 0 0 0 0 0 0 0 0 0 0 0 0 0 -0 0
-0 0 0 0 0 0 1 1 1 1 1 1 1 1 0 0 0 0 0 0 0 0 0 0 0 0 0 0 0 0 0 0 0 0 0 0 0 0 0 0 0 0 0 -0
0 0 0 0 -0 -0 1 2 1 1 1 1 1 0 0 0 0 0 0 0 0 0 0 0 0 0 0 0 0 0 0 0 0 0 0 0 0 0 0 0 0 0 0 0
0 0 0 0 0 0 0 0 0 0 0 0 0 0 0 0 0 0 0 0 0 0 0 0 0 0 0 0 0 0 0 0 0 0 0 0 0 0 0 0 0 0 0 0
0 0 0 0 0 0 0 1 1 0 0 0 0 0 0 0 0 0 0 0 0 0 0 0 0 0 0 0 0 0 0 0 0 0 0 0 0 0 0 0 0 0 0 0
0 0 0 0 0 0 0 0 0 0 0 0 0 0 0 0 0 0 0 0 0 0 0 0 0 0 0 0 0 0 0 0 0 0 0 0 0 0 0 0 0 0 0 0
0 0 0 0 0 0 0 0 0 0 0 0 0 0 0 0 0 0 0 0 0 0 0 0 0 0 0 0 0 0 0 0 0 0 0 0 0 0 0 0 0 0 0 0
0 0 0 0 0 0 0 -0 0 0 0 0 0 0 0 0 0 0 0 0 0 0 0 0 0 0 0 0 0 0 0 0 0 0 0 0 0 0 0 0 0 0 0 0
0 0 0 0 0 0 -0 0 0 0 0 0 0 0 0 0 0 0 0 0 0 0 0 0 0 0 0 0 0 0 0 0 0 0 0 0 0 0 0 0 0 0 0 0
0 0 0 -0 0 0 0 0 0 0 0 0 0 0 0 0 0 0 0 0 0 0 0 0 0 0 0 0 0 0 0 0 0 0 0 0 0 0 0 0 0 0 0 0
0 0 1 1 0 0 0 0 0 0 0 0 0 0 0 0 0 0 0 0 0 0 0 0 0 0 0 0 0 0 0 0 0 0 0 0 0 0 0 0 0 0 0 0
0 0 1 1 1 0 0 0 0 0 0 0 0 0 0 0 0 0 0 0 0 0 0 0 0 0 0 0 0 0 0 0 0 0 0 0 0 0 0 0 0 0 0 0
0 0 1 1 1 1 0 0 0 0 0 0 0 0 0 0 0 0 0 0 0 0 0 0 0 0 0 0 0 0 0 0 0 0 0 0 0 0 0 0 0 0 0 0
0 0 0 0 0 0 0 0 0 0 0 0 0 0 0 0 0 0 0 0 0 0 0 0 0 0 0 0 0 0 0 0 0 0 0 0 0 0 0 0 0 0 0 0
Wind_Speed_500mb
12 16 29 9 2 26 18 16 13 15 12 16 12 12 28 21 9 13 37 9 51 64 70 51 45 43 32 22 21 17 16 15 19 23 28 28 31 36 33 31 31 30 33 36
13 20 28 6 13 16 5 14 5 15 15 17 33 41 26 22 24 16 24 41 43 29 46 43 46 39 31 26 20 16 17 17 21 21 24 32 36 38 36 38 39 40 43 45
12 18 21 14 29 16 12 15 11 12 17 42 25 30 34 17 9 17 28 32 24 26 29 33 28 28 21 13 10 16 20 21 14 19 25 31 36 41 42 43 46 49 53 57
9 12 13 12 6 8 23 24 26 17 15 33 39 28 26 23 25 27 25 27 28 29 28 31 29 11 8 2 9 17 19 20 19 18 21 28 36 43 47 49 52 57 61 66
3 7 14 14 17 12 8 6 17 22 17 39 42 38 28 22 25 22 16 18 18 16 20 24 19 12 8 4 9 16 22 24 25 25 29 34 42 48 53 54 57 61 64 73
3 7 13 5 4 27 5 7 23 15 24 26 27 9 3 15 14 16 17 18 15 17 20 22 16 4 4 7 12 17 20 23 26 30 35 42 48 53 50 58 68 67 64 60
4 2 5 6 9 3 8 14 14 38 15 15 8 13 26 19 13 13 19 20 14 16 22 19 13 12 17 19 22 24 24 25 30 35 39 44 50 53 57 67 70 69 64 59
5 4 12 14 4 9 12 11 37 28 15 21 8 16 29 28 22 18 14 23 13 14 20 17 15 17 13 11 14 26 25 26 39 40 44 48 50 53 54 54 54 58 66 65
11 12 23 18 37 44 43 48 54 15 26 25 22 30 10 24 24 24 21 17 19 13 18 18 10 7 17 27 22 25 35 41 42 42 41 39 40 40 51 51 55 58 59 58
13 16 43 36 12 12 10 58 42 14 11 20 32 23 21 9 19 25 19 19 21 28 31 27 17 8 17 32 19 26 33 38 36 39 41 42 47 40 46 51 54 56 60 55
13 21 50 61 31 9 29 38 29 15 19 17 18 21 22 31 21 29 28 33 31 35 32 22 11 17 18 18 24 30 32 33 33 38 41 39 43 45 42 46 51 55 56 44
8 23 47 30 9 29 33 34 32 21 24 25 17 20 16 28 29 34 36 33 33 29 21 18 15 17 19 20 24 26 28 31 42 32 42 40 36 39 43 44 41 47 36 50
10 28 10 13 18 43 41 19 28 30 26 28 21 18 21 32 30 30 33 32 31 29 24 18 19 22 25 29 29 24 26 34 40 40 38 38 46 43 48 47 44 38 35 53
4 8 11 27 33 41 26 26 24 26 22 21 26 30 32 32 26 27 32 30 23 20 17 20 24 25 30 30 28 29 29 30 34 37 37 43 37 43 38 42 45 44 53 56
11 15 6 17 17 34 27 27 33 34 33 29 22 29 26 27 28 27 23 20 15 16 17 18 18 24 32 31 22 25 27 37 31 30 37 33 37 35 44 39 40 46 55 60
21 24 16 31 49 48 36 43 35 34 35 40 38 29 27 29 29 22 16 14 15 20 19 21 24 23 25 25 20 21 26 29 28 28 35 34 32 38 32 39 42 46 47 54
29 39 8 44 37 41 25 46 30 36 34 29 29 28 29 28 22 18 18 18 19 22 25 24 25 25 26 24 14 20 26 27 25 25 29 33 41 32 31 36 45 50 52 50
31 24 12 18 41 32 22 20 33 30 27 31 31 28 24 20 19 18 17 18 20 22 26 25 26 28 27 18 13 17 22 22 22 27 31 28 40 39 34 32 34 38 46 47
20 11 19 9 11 22 11 28 27 30 29 31 30 25 20 18 16 16 13 9 5 18 22 21 24 30 30 14 12 15 20 18 20 25 27 31 33 32 31 24 34 44 47 48
17 31 25 19 38 33 21 14 32 36 35 32 28 26 24 20 16 14 11 7 14 19 22 22 24 31 32 13 6 8 14 17 18 16 24 27 23 17 21 35 46 53 50 40
10 20 44 38 28 9 26 43 37 34 34 33 31 28 23 20 17 9 3 6 10 15 17 21 25 32 31 15 1 4 7 12 15 18 24 23 23 31 41 49 52 48 42 41
10 2 21 16 27 36 45 47 42 41 39 34 30 28 25 21 18 19 13 7 6 10 15 20 23 33 21 8 9 10 10 21 16 16 16 23 27 33 42 48 43 38 40 41
15 15 23 42 46 50 44 41 37 37 40 42 36 31 24 17 15 15 12 8 8 12 15 14 19 27 17 6 5 8 13 19 15 12 16 19 26 37 44 43 35 39 38 39
8 6 10 21 29 35 38 40 36 39 41 36 30 26 24 26 24 27 22 17 15 15 16 16 17 25 23 6 6 9 18 19 14 8 18 23 31 42 45 37 33 35 37 38
11 10 11 18 23 29 35 36 34 34 35 35 36 36 33 32 26 28 29 25 21 19 18 15 15 21 22 19 7 13 28 30 26 31 24 26 33 37 37 34 28 33 34 43
18 18 16 21 24 28 35 38 39 38 38 38 40 37 34 34 33 34 35 36 35 27 19 13 17 26 27 22 21 22 32 38 36 34 24 17 25 29 32 32 34 37 41 45
26 26 26 19 38 32 30 27 37 38 41 41 36 38 35 33 34 31 33 36 32 31 19 18 26 25 26 23 26 30 35 36 34 26 19 22 29 35 39 44 41 45 42 43
Wind_Direction_500mb
306 314 303 322 168 267 193 166 177 276 160 222 154 148 117 130 24 98 148 182 244 224 212 188 190 194 197 197 201 224 265 274 272 285 295 299 307 315 315 315 311 310 309 308
313 296 310 327 258 300 345 95 193 49 52 100 126 145 149 188 191 165 211 252 252 228 194 194 187 195 196 209 230 275 302 286 276 285 293 301 308 318 317 315 315 315 315 312
289 313 322 341 353 334 66 43 61 56 118 137 144 143 146 148 110 63 54 48 63 135 159 169 180 181 197 223 272 308 314 321 290 298 296 301 305 310 313 315 315 315 314 312
266 340 326 236 152 270 73 42 23 42 94 127 130 134 134 117 110 83 76 83 91 109 115 129 156 161 160 211 317 317 322 328 331 314 300 296 296 300 305 308 311 314 315 317
127 276 274 21 5 332 109 9 9 359 4 140 124 107 99 90 89 92 80 87 98 100 113 127 119 132 151 220 313 324 324 321 319 313 302 295 295 300 304 309 310 314 319 322
13 304 283 247 282 288 197 340 316 309 321 62 68 78 212 101 96 98 92 98 92 83 96 107 115 123 10 18 348 339 330 319 312 307 304 304 306 311 312 313 314 320 324 325
109 164 266 249 219 18 72 239 236 247 285 93 111 159 151 162 155 128 117 117 103 80 94 91 89 70 43 20 3 337 326 323 326 319 313 311 309 313 318 322 325 327 330 334
9 111 294 209 276 179 316 257 227 248 76 142 127 175 178 178 174 151 119 130 132 109 92 88 73 81 59 11 10 343 325 319 321 322 330 332 327 325 328 338 348 347 347 346
179 214 249 214 39 30 12 2 308 135 53 67 58 64 167 201 177 162 145 142 150 118 97 115 133 153 355 359 330 339 315 317 328 327 333 341 343 352 354 356 351 349 356 355
16 1 33 100 118 56 91 62 339 69 105 97 70 53 37 76 176 154 155 151 121 130 138 147 168 201 328 341 313 332 320 332 340 335 331 334 342 6 3 7 17 11 9 12
279 28 60 27 18 31 107 147 177 166 103 90 89 75 81 93 110 133 130 132 124 119 116 109 53 355 354 338 328 324 334 336 342 346 355 20 15 11 13 8 9 14 14 29
230 111 112 168 195 228 232 167 139 137 112 93 110 93 96 97 102 122 121 110 101 90 64 40 35 21 6 1 354 347 4 7 359 21 21 19 18 359 5 17 22 19 30 18
228 195 188 205 140 188 182 152 128 128 131 121 113 128 120 109 105 104 94 86 79 74 70 59 38 14 14 9 6 11 28 18 19 26 24 14 6 22 18 20 24 22 25 17
30 154 123 174 207 182 143 135 125 117 120 145 139 125 130 122 111 91 85 92 89 83 55 25 13 10 9 17 32 55 40 19 22 26 9 8 29 19 24 26 20 15 7 16
285 204 156 290 353 148 157 135 133 127 134 131 124 131 125 113 107 101 101 93 75 56 41 21 9 11 20 24 48 50 50 18 21 17 4 22 17 17 10 24 17 15 2 357
329 286 219 149 198 233 161 154 147 137 133 131 136 135 122 117 115 109 97 77 58 49 35 24 21 21 26 36 61 49 37 27 16 11 7 12 20 11 28 22 8 4 358 4
323 320 258 177 132 117 94 129 143 148 150 154 148 142 138 124 119 108 88 69 51 33 22 19 28 27 23 30 60 47 37 24 16 7 9 5 9 7 26 17 6 7 8 2
294 289 204 194 159 166 163 163 169 158 160 153 143 141 131 124 118 104 80 49 23 8 8 16 21 23 19 29 60 45 34 30 15 8 2 354 358 11 16 8 2 358 349 350
299 223 203 187 173 155 117 163 173 168 162 157 156 153 147 141 135 130 138 124 31 7 10 19 18 18 13 17 64 47 26 26 12 2 6 -0 347 4 18 6 349 347 348 348
95 112 106 100 120 126 103 191 172 164 167 182 177 170 168 161 149 133 126 73 29 15 9 10 11 6 2 8 84 57 38 13 5 354 -0 351 354 13 354 341 341 344 352 4
99 137 141 149 116 84 185 187 191 187 192 205 191 180 176 164 155 137 112 22 18 9 1 359 2 353 349 1 9 7 59 7 332 342 359 348 349 341 336 338 341 350 8 4
19 138 150 159 164 166 177 188 197 199 201 197 197 193 185 179 179 178 211 265 349 354 343 353 355 346 353 15 59 33 15 354 304 332 334 332 326 329 331 339 352 18 7 0
30 117 138 152 147 158 185 191 198 199 197 206 211 201 196 187 197 221 240 261 303 326 334 345 355 2 7 22 32 2 354 313 309 328 322 328 323 327 333 340 6 5 354 353
320 346 181 185 180 184 186 195 201 201 210 219 221 213 206 206 222 237 251 256 284 306 322 337 352 359 3 14 4 346 311 292 305 342 334 325 325 326 332 348 360 353 351 348
299 302 236 209 213 206 203 206 206 210 216 217 222 225 227 215 235 247 253 262 272 282 302 317 328 328 341 351 340 300 285 289 293 328 307 324 324 327 334 344 350 338 335 332
316 302 304 262 249 241 238 225 222 221 225 230 236 245 242 238 240 237 245 263 277 288 295 285 298 307 315 308 320 283 277 281 291 312 320 299 310 315 325 332 330 326 326 325
294 284 275 12 19 21 14 246 240 231 236 246 249 249 255 259 265 266 262 263 263 273 277 272 279 291 296 288 294 293 278 279 291 307 287 286 299 304 307 312 314 315 318 320
Wind_Speed_850mb
12 16 29 9 2 26 18 16 13 15 12 16 12 12 28 21 9 13 37 9 51 64 70 51 45 43 32 22 21 17 16 15 19 23 28 28 31 36 33 31 31 30 33 36
13 20 28 6 13 16 5 14 5 15 15 17 33 41 26 22 24 16 24 41 43 29 46 43 46 39 31 26 20 16 17 17 21 21 24 32 36 38 36 38 39 40 43 45
12 18 21 14 29 16 12 15 11 12 17 42 25 30 34 17 9 17 28 32 24 26 29 33 28 28 21 13 10 16 20 21 14 19 25 31 36 41 42 43 46 49 53 57
9 12 13 12 6 8 23 24 26 17 15 33 39 28 26 23 25 27 25 27 28 29 28 31 29 11 8 2 9 17 19 20 19 18 21 28 36 43 47 49 52 57 61 66
3 7 14 14 17 12 8 6 17 22 17 39 42 38 28 22 25 22 16 18 18 16 20 24 19 12 8 4 9 16 22 24 25 25 29 34 42 48 53 54 57 61 64 73
3 7 13 5 4 27 5 7 23 15 24 26 27 9 3 15 14 16 17 18 15 17 20 22 16 4 4 7 12 17 20 23 26 30 35 42 48 53 50 58 68 67 64 60
4 2 5 6 9 3 8 14 14 38 15 15 8 13 26 19 13 13 19 20 14 16 22 19 13 12 17 19 22 24 24 25 30 35 39 44 50 53 57 67 70 69 64 59
5 4 12 14 4 9 12 11 37 28 15 21 8 16 29 28 22 18 14 23 13 14 20 17 15 17 13 11 14 26 25 26 39 40 44 48 50 53 54 54 54 58 66 65
11 12 23 18 37 44 43 48 54 15 26 25 22 30 10 24 24 24 21 17 19 13 18 18 10 7 17 27 22 25 35 41 42 42 41 39 40 40 51 51 55 58 59 58
13 16 43 36 12 12 10 58 42 14 11 20 32 23 21 9 19 25 19 19 21 28 31 27 17 8 17 32 19 26 33 38 36 39 41 42 47 40 46 51 54 56 60 55
13 21 50 61 31 9 29 38 29 15 19 17 18 21 22 31 21 29 28 33 31 35 32 22 11 17 18 18 24 30 32 33 33 38 41 39 43 45 42 46 51 55 56 44
8 23 47 30 9 29 33 34 32 21 24 25 17 20 16 28 29 34 36 33 33 29 21 18 15 17 19 20 24 26 28 31 42 32 42 40 36 39 43 44 41 47 36 50
10 28 10 13 18 43 41 19 28 30 26 28 21 18 21 32 30 30 33 32 31 29 24 18 19 22 25 29 29 24 26 34 40 40 38 38 46 43 48 47 44 38 35 53
4 8 11 27 33 41 26 26 24 26 22 21 26 30 32 32 26 27 32 30 23 20 17 20 24 25 30 30 28 29 29 30 34 37 37 43 37 43 38 42 45 44 53 56
11 15 6 17 17 34 27 27 33 34 33 29 22 29 26 27 28 27 23 20 15 16 17 18 18 24 32 31 22 25 27 37 31 30 37 33 37 35 44 39 40 46 55 60
21 24 16 31 49 48 36 43 35 34 35 40 38 29 27 29 29 22 16 14 15 20 19 21 24 23 25 25 20 21 26 29 28 28 35 34 32 38 32 39 42 46 47 54
29 39 8 44 37 41 25 46 30 36 34 29 29 28 29 28 22 18 18 18 19 22 25 24 25 25 26 24 14 20 26 27 25 25 29 33 41 32 31 36 45 50 52 50
31 24 12 18 41 32 22 20 33 30 27 31 31 28 24 20 19 18 17 18 20 22 26 25 26 28 27 18 13 17 22 22 22 27 31 28 40 39 34 32 34 38 46 47
20 11 19 9 11 22 11 28 27 30 29 31 30 25 20 18 16 16 13 9 5 18 22 21 24 30 30 14 12 15 20 18 20 25 27 31 33 32 31 24 34 44 47 48
17 31 25 19 38 33 21 14 32 36 35 32 28 26 24 20 16 14 11 7 14 19 22 22 24 31 32 13 6 8 14 17 18 16 24 27 23 17 21 35 46 53 50 40
10 20 44 38 28 9 26 43 37 34 34 33 31 28 23 20 17 9 3 6 10 15 17 21 25 32 31 15 1 4 7 12 15 18 24 23 23 31 41 49 52 48 42 41
10 2 21 16 27 36 45 47 42 41 39 34 30 28 25 21 18 19 13 7 6 10 15 20 23 33 21 8 9 10 10 21 16 16 16 23 27 33 42 48 43 38 40 41
15 15 23 42 46 50 44 41 37 37 40 42 36 31 24 17 15 15 12 8 8 12 15 14 19 27 17 6 5 8 13 19 15 12 16 19 26 37 44 43 35 39 38 39
8 6 10 21 29 35 38 40 36 39 41 36 30 26 24 26 24 27 22 17 15 15 16 16 17 25 23 6 6 9 18 19 14 8 18 23 31 42 45 37 33 35 37 38
11 10 11 18 23 29 35 36 34 34 35 35 36 36 33 32 26 28 29 25 21 19 18 15 15 21 22 19 7 13 28 30 26 31 24 26 33 37 37 34 28 33 34 43
18 18 16 21 24 28 35 38 39 38 38 38 40 37 34 34 33 34 35 36 35 27 19 13 17 26 27 22 21 22 32 38 36 34 24 17 25 29 32 32 34 37 41 45
26 26 26 19 38 32 30 27 37 38 41 41 36 38 35 33 34 31 33 36 32 31 19 18 26 25 26 23 26 30 35 36 34 26 19 22 29 35 39 44 41 45 42 43
Wind_Direction_850mb
306 314 303 322 168 267 193 166 177 276 160 222 154 148 117 130 24 98 148 182 244 224 212 188 190 194 197 197 201 224 265 274 272 285 295 299 307 315 315 315 311 310 309 308
313 296 310 327 258 300 345 95 193 49 52 100 126 145 149 188 191 165 211 252 252 228 194 194 187 195 196 209 230 275 302 286 276 285 293 301 308 318 317 315 315 315 315 312
289 313 322 341 353 334 66 43 61 56 118 137 144 143 146 148 110 63 54 48 63 135 159 169 180 181 197 223 272 308 314 321 290 298 296 301 305 310 313 315 315 315 314 312
266 340 326 236 152 270 73 42 23 42 94 127 130 134 134 117 110 83 76 83 91 109 115 129 156 161 160 211 317 317 322 328 331 314 300 296 296 300 305 308 311 314 315 317
127 276 274 21 5 332 109 9 9 359 4 140 124 107 99 90 89 92 80 87 98 100 113 127 119 132 151 220 313 324 324 321 319 313 302 295 295 300 304 309 310 314 319 322
13 304 283 247 282 288 197 340 316 309 321 62 68 78 212 101 96 98 92 98 92 83 96 107 115 123 10 18 348 339 330 319 312 307 304 304 306 311 312 313 314 320 324 325
109 164 266 249 219 18 72 239 236 247 285 93 111 159 151 162 155 128 117 117 103 80 94 91 89 70 43 20 3 337 326 323 326 319 313 311 309 313 318 322 325 327 330 334
9 111 294 209 276 179 316 257 227 248 76 142 127 175 178 178 174 151 119 130 132 109 92 88 73 81 59 11 10 343 325 319 321 322 330 332 327 325 328 338 348 347 347 346
179 214 249 214 39 30 12 2 308 135 53 67 58 64 167 201 177 162 145 142 150 118 97 115 133 153 355 359 330 339 315 317 328 327 333 341 343 352 354 356 351 349 356 355
16 1 33 100 118 56 91 62 339 69 105 97 70 53 37 76 176 154 155 151 121 130 138 147 168 201 328 341 313 332 320 332 340 335 331 334 342 6 3 7 17 11 9 12
279 28 60 27 18 31 107 147 177 166 103 90 89 75 81 93 110 133 130 132 124 119 116 109 53 355 354 338 328 324 334 336 342 346 355 20 15 11 13 8 9 14 14 29
230 111 112 168 195 228 232 167 139 137 112 93 110 93 96 97 102 122 121 110 101 90 64 40 35 21 6 1 354 347 4 7 359 21 21 19 18 359 5 17 22 19 30 18
228 195 188 205 140 188 182 152 128 128 131 121 113 128 120 109 105 104 94 86 79 74 70 59 38 14 14 9 6 11 28 18 19 26 24 14 6 22 18 20 24 22 25 17
30 154 123 174 207 182 143 135 125 117 120 145 139 125 130 122 111 91 85 92 89 83 55 25 13 10 9 17 32 55 40 19 22 26 9 8 29 19 24 26 20 15 7 16
285 204 156 290 353 148 157 135 133 127 134 131 124 131 125 113 107 101 101 93 75 56 41 21 9 11 20 24 48 50 50 18 21 17 4 22 17 17 10 24 17 15 2 357
329 286 219 149 198 233 161 154 147 137 133 131 136 135 122 117 115 109 97 77 58 49 35 24 21 21 26 36 61 49 37 27 16 11 7 12 20 11 28 22 8 4 358 4
323 320 258 177 132 117 94 129 143 148 150 154 148 142 138 124 119 108 88 69 51 33 22 19 28 27 23 30 60 47 37 24 16 7 9 5 9 7 26 17 6 7 8 2
294 289 204 194 159 166 163 163 169 158 160 153 143 141 131 124 118 104 80 49 23 8 8 16 21 23 19 29 60 45 34 30 15 8 2 354 358 11 16 8 2 358 349 350
299 223 203 187 173 155 117 163 173 168 162 157 156 153 147 141 135 130 138 124 31 7 10 19 18 18 13 17 64 47 26 26 12 2 6 -0 347 4 18 6 349 347 348 348
95 112 106 100 120 126 103 191 172 164 167 182 177 170 168 161 149 133 126 73 29 15 9 10 11 6 2 8 84 57 38 13 5 354 -0 351 354 13 354 341 341 344 352 4
99 137 141 149 116 84 185 187 191 187 192 205 191 180 176 164 155 137 112 22 18 9 1 359 2 353 349 1 9 7 59 7 332 342 359 348 349 341 336 338 341 350 8 4
19 138 150 159 164 166 177 188 197 199 201 197 197 193 185 179 179 178 211 265 349 354 343 353 355 346 353 15 59 33 15 354 304 332 334 332 326 329 331 339 352 18 7 0
30 117 138 152 147 158 185 191 198 199 197 206 211 201 196 187 197 221 240 261 303 326 334 345 355 2 7 22 32 2 354 313 309 328 322 328 323 327 333 340 6 5 354 353
320 346 181 185 180 184 186 195 201 201 210 219 221 213 206 206 222 237 251 256 284 306 322 337 352 359 3 14 4 346 311 292 305 342 334 325 325 326 332 348 360 353 351 348
299 302 236 209 213 206 203 206 206 210 216 217 222 225 227 215 235 247 253 262 272 282 302 317 328 328 341 351 340 300 285 289 293 328 307 324 324 327 334 344 350 338 335 332
316 302 304 262 249 241 238 225 222 221 225 230 236 245 242 238 240 237 245 263 277 288 295 285 298 307 315 308 320 283 277 281 291 312 320 299 310 315 325 332 330 326 326 325
294 284 275 12 19 21 14 246 240 231 236 246 249 249 255 259 265 266 262 263 263 273 277 272 279 291 296 288 294 293 278 279 291 307 287 286 299 304 307 312 314 315 318 320